Overview Statistics Trail Chart Weather Telemetry Raw packets
 

This is the latest recevied weather packets stored in our database for station/object OK5TVR-5. If no packets are shown the sender has not sent any weather packets the latest 10 day(s).

<< 30 31 32 33 34 35 36 >>
Time Temp. Humidity Pressure Rain* Wind** Luminosity Snow
1788008964 23.89° C 40% 1008.1 hPa 0 mm - 200 W/m² -
1788008064 23.89° C 43% 1008 hPa 0 mm - 194 W/m² -
1788007164 23.89° C 45% 1008.1 hPa 0 mm - 208 W/m² -
1788006264 23.89° C 46% 1008.3 hPa 0 mm - 223 W/m² -
1788005364 23.33° C 49% 1008.4 hPa 0 mm - 255 W/m² -
1788004465 22.22° C 55% 1008.9 hPa 0 mm - 54 W/m² -
1788003564 23.33° C 53% 1008.7 hPa 0 mm - 74 W/m² -
1788002664 23.33° C 52% 1008.7 hPa 0 mm - 239 W/m² -
1788001764 21.67° C 56% 1009.1 hPa 0 mm - 280 W/m² -
1788000864 21.67° C 55% 1009.1 hPa 0 mm - 300 W/m² -
1787999964 22.22° C 56% 1009.2 hPa 0 mm - 290 W/m² -
1787999064 22.22° C 56% 1009.2 hPa 0 mm - 324 W/m² -
1787998164 21.11° C 58% 1009.6 hPa 0 mm - 286 W/m² -
1787997264 21.11° C 61% 1009.7 hPa 0 mm - 220 W/m² -
1787996364 21.11° C 64% 1009.8 hPa 0 mm - 72 W/m² -
1787995464 20.56° C 64% 1010 hPa 0 mm - 218 W/m² -
1787994564 20.56° C 64% 1009.8 hPa 0 mm - 238 W/m² -
1787993664 19.44° C 69% 1010.1 hPa 0 mm - 204 W/m² -
1787992764 18.89° C 66% 1010.1 hPa 0 mm - 174 W/m² -
1787991864 18.89° C 75% 1010.1 hPa 0 mm - 91 W/m² -
1787990972 18.33° C 73% 1010.1 hPa 0 mm - 93 W/m² -
1787990064 18.33° C 80% 1009.8 hPa 0 mm - 138 W/m² -
1787989164 18.33° C 80% 1009.8 hPa 0 mm - 142 W/m² -
1787988264 17.78° C 79% 1009.8 hPa 0 mm - 132 W/m² -
1787987364 17.22° C 86% 1009.9 hPa 0.25 mm - 79 W/m² -

* Rain latest hour (hover to see other rain measurements)
** Current wind speed in m/s (hover to see current wind gust speed)